Location: Dover
(39.1580°N, 75.5250°W)
Time: 14:57:15
(UTC-04:00)

SeaSat 1 - Visible Passes

Search period start: 29 August 2015 00:00
Search period end: 08 September 2015 00:00
Orbit: 745 x 749 km, 108.0° (Epoch: 29 August)

Date Brightness Start Highest point End Pass type
(mag) Time Alt. Az. Time Alt. Az. Time Alt. Az.
29 Aug 5.1 01:31:15 14° NNW 01:31:15 14° NNW 01:32:00 10° NNW visible
30 Aug 5.2 00:48:31 14° NNE 00:48:31 14° NNE 00:49:27 10° N visible
31 Aug 5.2 01:45:34 13° NNW 01:45:34 13° NNW 01:46:01 10° NNW visible
01 Sep 5.3 01:02:50 13° N 01:02:50 13° N 01:03:34 10° N visible
02 Sep 5.3 01:59:53 11° NNW 01:59:53 11° NNW 02:00:02 10° NNW visible
03 Sep 5.3 01:17:08 12° N 01:17:08 12° N 01:17:39 10° N visible
05 Sep 5.4 01:31:27 11° N 01:31:27 11° N 01:31:44 10° N visible
07 Sep 5.5 01:45:44 10° N 01:45:44 10° N 01:45:48 10° N visible
